When you browse on this site, cookies collect data to enhance your experience and personalize the content and advertising you see.
Visit our Privacy Policy to learn more. By continuing to use the site, you agree to this use of cookies and data.
  • In Hungary
  • List of Countries
  • For 7 days
  • Water Temperature
  • Satellite Maps
  • Weather Map
  • News
  • Weather Widgets
  • user-avatar
    Login

    Hourly Weather Livingstone

    Today, 22 January, Tuesday

    Time Temperature Precipitation Wind Pressure Humidity
    00:00 +22°C° 0 mm 1 mps 683 mmHg 70%
    01:00 +22°C° 0 mm 1 mps 683 mmHg 71%
    02:00 +22°C° 0 mm 1 mps 682 mmHg 72%
    03:00 +21°C° 0 mm 1 mps 682 mmHg 74%
    04:00 +21°C° 0 mm 1 mps 682 mmHg 76%
    05:00 +20°C° 0 mm 1 mps 682 mmHg 77%
    06:00 +22°C° 0 mm 1 mps 682 mmHg 73%
    07:00 +23°C° 0 mm 1 mps 683 mmHg 69%
    08:00 +25°C° 0 mm 2 mps 683 mmHg 62%
    09:00 +27°C° 0 mm 2 mps 683 mmHg 55%
    10:00 +28°C° 0 mm 2 mps 684 mmHg 49%
    11:00 +30°C° 0 mm 2 mps 684 mmHg 42%
    12:00 +31°C° 0 mm 2 mps 683 mmHg 37%
    13:00 +34°C° 0 mm 2 mps 682 mmHg 31%
    14:00 +33°C° 0 mm 1 mps 683 mmHg 34%
    15:00 +32°C° 0 mm 1 mps 682 mmHg 33%
    16:00 +32°C° 0 mm 1 mps 682 mmHg 32%
    17:00 +30°C° 0 mm 0 mps 681 mmHg 31%
    18:00 +27°C° 0 mm 0 mps 681 mmHg 36%
    19:00 +27°C° 0 mm 1 mps 681 mmHg 41%
    20:00 +25°C° 0 mm 1 mps 681 mmHg 46%
    21:00 +24°C° 0 mm 1 mps 681 mmHg 51%
    22:00 +23°C° 0 mm 1 mps 682 mmHg 56%
    23:00 +23°C° 0 mm 1 mps 682 mmHg 60%

    Tomorrow, 23 January, Wednesday

    Time Temperature Precipitation Wind Pressure Humidity
    00:00 +23°C° 0 mm 1 mps 682 mmHg 63%
    01:00 +23°C° 0 mm 1 mps 682 mmHg 66%
    02:00 +22°C° 0 mm 1 mps 681 mmHg 68%
    03:00 +22°C° 0 mm 1 mps 681 mmHg 70%
    04:00 +22°C° 0 mm 1 mps 681 mmHg 72%
    05:00 +22°C° 0 mm 1 mps 681 mmHg 74%
    06:00 +24°C° 0 mm 1 mps 682 mmHg 71%
    07:00 +23°C° 0 mm 0 mps 682 mmHg 68%
    08:00 +24°C° 0 mm 0 mps 683 mmHg 65%
    09:00 +29°C° 0 mm 1 mps 683 mmHg 56%
    10:00 +32°C° 0 mm 1 mps 683 mmHg 47%
    11:00 +35°C° 0 mm 1 mps 684 mmHg 38%
    12:00 +35°C° 0 mm 1 mps 683 mmHg 33%
    13:00 +36°C° 0 mm 1 mps 683 mmHg 29%
    14:00 +37°C° 0 mm 2 mps 682 mmHg 25%
    15:00 +37°C° 0 mm 2 mps 681 mmHg 24%
    16:00 +37°C° 0 mm 2 mps 681 mmHg 24%
    17:00 +36°C° 0 mm 2 mps 680 mmHg 24%
    18:00 +34°C° 0 mm 2 mps 680 mmHg 30%
    19:00 +30°C° 0 mm 2 mps 680 mmHg 36%
    20:00 +27°C° 0 mm 1 mps 679 mmHg 42%
    21:00 +26°C° 0 mm 1 mps 680 mmHg 51%
    22:00 +25°C° 0 mm 1 mps 680 mmHg 60%
    23:00 +24°C° 0 mm 1 mps 681 mmHg 69%

    Day after tomorrow, 24 January, Thursday

    Time Temperature Precipitation Wind Pressure Humidity
    00:00 +24°C° 0 mm 1 mps 681 mmHg 71%
    01:00 +24°C° 0 mm 1 mps 680 mmHg 72%
    02:00 +21°C° 0 mm 0 mps 680 mmHg 74%
    03:00 +21°C° 0 mm 0 mps 680 mmHg 75%
    04:00 +20°C° 0 mm 0 mps 680 mmHg 76%
    05:00 +20°C° 0 mm 0 mps 680 mmHg 77%
    06:00 +22°C° 0 mm 0 mps 681 mmHg 72%
    07:00 +25°C° 0 mm 1 mps 681 mmHg 67%
    08:00 +27°C° 0 mm 1 mps 682 mmHg 62%
    09:00 +29°C° 0 mm 1 mps 683 mmHg 53%
    10:00 +32°C° 0 mm 1 mps 683 mmHg 45%
    11:00 +36°C° 0 mm 2 mps 684 mmHg 36%
    12:00 +37°C° 0 mm 2 mps 683 mmHg 32%
    13:00 +38°C° 0 mm 2 mps 682 mmHg 27%
    14:00 +39°C° 0 mm 2 mps 682 mmHg 23%
    15:00 +38°C° 0 mm 3 mps 681 mmHg 23%
    16:00 +38°C° 0 mm 3 mps 681 mmHg 24%
    17:00 +37°C° 0 mm 4 mps 680 mmHg 24%
    18:00 +35°C° 0 mm 3 mps 680 mmHg 32%
    19:00 +31°C° 0 mm 3 mps 680 mmHg 39%
    20:00 +28°C° 0 mm 3 mps 680 mmHg 47%
    21:00 +27°C° 0 mm 2 mps 681 mmHg 49%
    22:00 +27°C° 0 mm 2 mps 681 mmHg 50%
    23:00 +26°C° 0 mm 1 mps 681 mmHg 52%

    25 January, Friday

    Time Temperature Precipitation Wind Pressure Humidity
    00:00 +25°C° 0 mm 1 mps 681 mmHg 53%
    01:00 +25°C° 0 mm 1 mps 681 mmHg 54%
    02:00 +24°C° 0 mm 1 mps 681 mmHg 55%
    03:00 +24°C° 0 mm 1 mps 681 mmHg 57%
    04:00 +23°C° 0 mm 1 mps 681 mmHg 60%
    05:00 +23°C° 0 mm 1 mps 681 mmHg 62%
    06:00 +24°C° 0 mm 1 mps 682 mmHg 60%
    07:00 +25°C° 0 mm 1 mps 682 mmHg 58%
    08:00 +27°C° 0 mm 1 mps 683 mmHg 56%
    09:00 +29°C° 0 mm 1 mps 684 mmHg 50%
    10:00 +32°C° 0 mm 1 mps 684 mmHg 44%
    11:00 +35°C° 0 mm 2 mps 685 mmHg 37%
    12:00 +35°C° 0 mm 1 mps 684 mmHg 34%
    13:00 +37°C° 0 mm 1 mps 683 mmHg 30%
    14:00 +39°C° 0 mm 1 mps 683 mmHg 27%
    15:00 +39°C° 0 mm 2 mps 682 mmHg 25%
    16:00 +38°C° 0 mm 2 mps 682 mmHg 24%
    17:00 +38°C° 0 mm 2 mps 681 mmHg 23%
    18:00 +35°C° 0 mm 2 mps 681 mmHg 30%
    19:00 +31°C° 0 mm 2 mps 681 mmHg 37%
    20:00 +28°C° 0 mm 2 mps 681 mmHg 44%
    21:00 +28°C° 0 mm 2 mps 681 mmHg 48%
    22:00 +27°C° 0 mm 2 mps 682 mmHg 53%
    23:00 +26°C° 0 mm 2 mps 682 mmHg 57%

    26 January, Saturday

    Time Temperature Precipitation Wind Pressure Humidity
    00:00 +25°C° 0 mm 1 mps 682 mmHg 58%
    01:00 +24°C° 0 mm 1 mps 682 mmHg 59%
    02:00 +24°C° 0 mm 1 mps 681 mmHg 60%
    03:00 +23°C° 0 mm 1 mps 681 mmHg 61%
    04:00 +23°C° 0 mm 1 mps 681 mmHg 62%
    05:00 +22°C° 0 mm 1 mps 682 mmHg 64%
    06:00 +24°C° 0 mm 1 mps 682 mmHg 61%
    07:00 +25°C° 0 mm 1 mps 683 mmHg 58%
    08:00 +27°C° 0 mm 1 mps 684 mmHg 54%
    09:00 +29°C° 0 mm 1 mps 684 mmHg 49%
    10:00 +32°C° 0 mm 2 mps 684 mmHg 44%
    11:00 +35°C° 0 mm 2 mps 685 mmHg 38%
    12:00 +37°C° 0 mm 2 mps 684 mmHg 34%
    13:00 +38°C° 0 mm 2 mps 683 mmHg 30%
    14:00 +39°C° 0 mm 2 mps 683 mmHg 26%
    15:00 +38°C° 0 mm 2 mps 682 mmHg 28%
    16:00 +37°C° 0 mm 2 mps 681 mmHg 30%
    17:00 +36°C° 0 mm 2 mps 681 mmHg 32%
    18:00 +34°C° 0 mm 3 mps 681 mmHg 40%
    19:00 +31°C° 0 mm 3 mps 681 mmHg 47%
    20:00 +29°C° 0 mm 3 mps 681 mmHg 55%
    21:00 +28°C° 0 mm 3 mps 682 mmHg 58%
    22:00 +27°C° 0 mm 2 mps 682 mmHg 61%
    23:00 +26°C° 0 mm 2 mps 682 mmHg 64%

    27 January, Sunday

    Time Temperature Precipitation Wind Pressure Humidity
    00:00 +25°C° 0 mm 2 mps 682 mmHg 65%
    01:00 +25°C° 0 mm 2 mps 681 mmHg 67%
    02:00 +24°C° 0 mm 1 mps 681 mmHg 68%
    03:00 +24°C° 0 mm 1 mps 681 mmHg 70%
    04:00 +23°C° 0 mm 1 mps 681 mmHg 73%
    05:00 +21°C° 0 mm 0 mps 681 mmHg 75%
    06:00 +24°C° 0 mm 1 mps 682 mmHg 71%
    07:00 +25°C° 0 mm 1 mps 682 mmHg 66%
    08:00 +27°C° 0 mm 1 mps 683 mmHg 62%
    09:00 +29°C° 0 mm 2 mps 683 mmHg 54%
    10:00 +31°C° 0 mm 2 mps 684 mmHg 46%
    11:00 +35°C° 0 mm 3 mps 684 mmHg 38%
    12:00 +36°C° 0 mm 3 mps 683 mmHg 34%
    13:00 +37°C° 0 mm 3 mps 683 mmHg 31%
    14:00 +38°C° 0 mm 3 mps 682 mmHg 27%
    15:00 +38°C° 0 mm 3 mps 682 mmHg 28%
    16:00 +37°C° 0 mm 3 mps 681 mmHg 28%
    17:00 +37°C° 0 mm 3 mps 681 mmHg 28%
    18:00 +34°C° 0 mm 3 mps 681 mmHg 35%
    19:00 +31°C° 0 mm 3 mps 681 mmHg 42%
    20:00 +28°C° 0 mm 2 mps 681 mmHg 49%
    21:00 +27°C° 0 mm 2 mps 682 mmHg 52%
    22:00 +26°C° 0 mm 2 mps 682 mmHg 56%
    23:00 +25°C° 0 mm 2 mps 682 mmHg 59%
    Show more